This demonstration page uses our WeatherBlox Daily Observations layout. Learn more.

Left ArrowRight Arrow

Hourly Observations for September 7, 2021

Temp ( °F °C ) Dew Point ( °F °C ) Humidity (%) Winds ( mph kmh ) Pressure ( in mb ) Visibility ( mi km ) Precip ( " mm )
12:15 am 00:15 Clear 74 23.1 64 18 73 73 SSW 9 15 29.75 1008 10 16 N/A
12:35 am 00:35 Clear 74 23.1 64 18 73 73 SSW 8 13 29.75 1008 10 16 N/A
12:55 am 00:55 Clear 73 22.5 64 18 76 76 SSW 7 11 29.76 1008 10 16 N/A
1:15 am 01:15 Clear 72 22.1 65 18.1 78 78 SSW 7 11 29.76 1008 10 16 N/A
1:35 am 01:35 Clear 71 21.8 64 18 79 79 SSW 8 13 29.76 1008 10 16 N/A
1:55 am 01:55 Clear 71 21.7 65 18.1 80 80 SSW 7 11 29.76 1008 10 16 N/A
2:15 am 02:15 Clear 71 21.4 65 18.1 82 82 SW 7 11 29.76 1008 10 16 N/A
2:35 am 02:35 Clear 71 21.5 65 18.1 81 81 SW 8 13 29.76 1008 10 16 N/A
2:55 am 02:55 Clear 71 21.7 64 18 80 80 SW 8 13 29.75 1008 10 16 N/A
3:15 am 03:15 Clear 71 21.7 64 17.6 78 78 SW 8 13 29.74 1007 10 16 N/A
3:35 am 03:35 Clear 71 21.5 64 17.5 78 78 SW 8 13 29.75 1007 10 16 N/A
3:55 am 03:55 Clear 71 21.5 63 17.3 77 77 SW 8 13 29.75 1007 10 16 N/A
4:15 am 04:15 Clear 71 21.5 63 17 76 76 SW 8 13 29.74 1007 10 16 N/A
4:35 am 04:35 Clear 70 21.3 63 17 77 77 SW 8 13 29.74 1007 10 16 N/A
4:55 am 04:55 Clear 69 20.7 62 16.7 78 78 SW 6 9 29.75 1008 10 16 N/A
5:15 am 05:15 Clear 69 20.7 62 16.6 77 77 SW 3 6 29.75 1008 10 16 N/A
5:35 am 05:35 Clear 68 20 61 16.3 79 79 SW 3 6 29.76 1008 10 16 N/A
5:55 am 05:55 Clear 67 19.5 61 16.2 81 81 WSW 3 6 29.76 1008 10 16 N/A
6:15 am 06:15 Clear 65 18.3 61 15.9 86 86 NW 7 11 29.79 1009 10 16 N/A
6:35 am 06:35 Clear 63 17.1 60 15.6 91 91 WNW 5 7 29.80 1009 10 16 N/A
6:55 am 06:55 Clear 63 17 59 14.8 87 87 NW 8 13 29.82 1010 10 16 N/A
7:15 am 07:15 Sunny 64 17.5 57 14 80 80 NNW 8 13 29.83 1010 10 16 N/A
7:35 am 07:35 Sunny 64 18 57 13.7 76 76 N 8 13 29.83 1010 10 16 N/A
7:55 am 07:55 Sunny 64 17.7 57 13.8 78 78 N 9 15 29.85 1011 10 16 N/A
8:15 am 08:15 Sunny 64 18 57 13.7 76 76 N 10 17 29.86 1011 10 16 N/A
8:35 am 08:35 Sunny 65 18.6 56 13.6 73 73 N 10 17 29.87 1011 10 16 N/A
8:55 am 08:55 Sunny 67 19.5 56 13.5 68 68 N 12 19 29.87 1012 10 16 N/A
9:15 am 09:15 Sunny 68 20.2 56 13.3 65 65 N 10 17 29.88 1012 10 16 N/A
9:35 am 09:35 Sunny 69 20.8 56 13.2 62 62 N 13 20 29.88 1012 10 16 N/A
9:55 am 09:55 Sunny 71 21.5 56 13.5 60 60 N 13 20 29.88 1012 10 16 N/A
10:15 am 10:15 Sunny 72 22.2 54 12.3 54 54 N 17 28 29.90 1012 10 16 N/A
10:35 am 10:35 Sunny 73 22.8 53 11.7 50 50 N 13 20 29.89 1012 10 16 N/A
10:55 am 10:55 Sunny 74 23.3 53 11.8 48 48 N 21 33 29.90 1013 10 16 N/A
11:15 am 11:15 Sunny 74 23.5 54 12.2 49 49 N 20 31 29.91 1013 10 16 N/A
11:35 am 11:35 Sunny 75 23.7 53 11.5 46 46 N 21 33 29.93 1013 10 16 N/A
11:55 am 11:55 Sunny 75 24.1 53 11.7 46 46 NNE 23 37 29.92 1013 10 16 N/A
12:15 pm 12:15 Sunny 76 24.3 53 11.5 45 45 N 22 35 29.92 1013 10 16 N/A
12:35 pm 12:35 Sunny 76 24.3 53 11.5 45 45 N 20 31 29.93 1014 10 16 N/A
12:55 pm 12:55 Sunny 77 24.8 54 12.1 45 45 N 18 30 29.94 1014 10 16 N/A
1:15 pm 13:15 Sunny 77 25 53 11.9 44 44 N 14 22 29.95 1014 10 16 N/A
1:35 pm 13:35 Sunny 77 25 54 12.3 45 45 N 15 24 29.95 1014 10 16 N/A
1:55 pm 13:55 Sunny 77 25.1 55 12.7 46 46 N 16 26 29.95 1014 10 16 N/A
2:15 pm 14:15 Sunny 78 25.5 55 13 46 46 NNE 14 22 29.94 1014 10 16 N/A
2:35 pm 14:35 Sunny 78 25.3 54 12 44 44 N 13 20 29.94 1014 10 16 N/A
2:55 pm 14:55 Sunny 78 25.5 55 12.8 45 45 NNE 14 22 29.94 1014 10 16 N/A
3:15 pm 15:15 Sunny 78 25.5 55 12.7 45 45 N 14 22 29.94 1014 10 16 N/A
3:35 pm 15:35 Sunny 78 25.3 55 12.5 45 45 NNE 10 17 29.93 1014 10 16 N/A
3:55 pm 15:55 Sunny 78 25.3 54 12.1 44 44 N 13 20 29.94 1014 10 16 N/A
4:15 pm 16:15 Sunny 77 25.2 54 12.3 45 45 NNE 12 19 29.93 1014 10 16 N/A
4:35 pm 16:35 Sunny 77 25.2 55 12.5 45 45 NNE 10 17 29.93 1014 10 16 N/A
4:55 pm 16:55 Sunny 77 25.2 55 12.8 46 46 N 8 13 29.94 1014 10 16 N/A
5:15 pm 17:15 Sunny 77 25 54 12.2 45 45 N 10 17 29.95 1014 10 16 N/A
5:35 pm 17:35 Sunny 76 24.7 55 12.5 47 47 N 8 13 29.95 1014 10 16 N/A
5:55 pm 17:55 Sunny 76 24.4 56 13.4 50 50 N 7 11 29.95 1014 10 16 N/A
6:15 pm 18:15 Sunny 75 23.8 57 14 54 54 N 6 9 29.96 1014 10 16 N/A
6:35 pm 18:35 Sunny 74 23.3 59 14.9 59 59 N 5 7 29.96 1015 10 16 N/A
6:55 pm 18:55 Sunny 73 22.8 58 14.7 60 60 N 5 7 29.96 1015 10 16 N/A
7:15 pm 19:15 Sunny 73 22.5 59 14.8 62 62 N 3 6 29.97 1015 10 16 N/A
7:35 pm 19:35 Sunny 72 22.1 58 14.2 61 61 NNW 5 7 29.97 1015 10 16 N/A
7:55 pm 19:55 Sunny 71 21.4 57 14 63 63 NNW 5 7 29.98 1015 10 16 N/A
8:15 pm 20:15 Clear 69 20.5 58 14.2 67 67 NNW 3 6 29.98 1015 10 16 N/A
8:35 pm 20:35 Clear 65 18.5 58 14.2 76 76 N 5 7 30.00 1016 10 16 N/A
8:55 pm 20:55 Clear 64 17.6 57 14.1 80 80 N N/A 30.02 1016 10 16 N/A
9:15 pm 21:15 Clear 63 17.1 57 14 82 82 N 5 7 30.03 1017 10 16 N/A
9:35 pm 21:35 Clear 62 16.5 56 13.2 81 81 N 6 9 30.05 1017 10 16 N/A
9:55 pm 21:55 Clear 62 16.8 55 13 78 78 N 5 7 30.04 1017 10 16 N/A
10:15 pm 22:15 Clear 59 15 55 12.5 85 85 N 6 9 30.07 1018 10 16 N/A
10:35 pm 22:35 Clear 59 15.2 55 12.5 84 84 N 7 11 30.08 1019 10 16 N/A
10:55 pm 22:55 Clear 60 15.5 54 12 80 80 N 5 7 30.07 1018 10 16 N/A
11:15 pm 23:15 Clear 60 15.4 53 11.4 77 77 N N/A 30.08 1018 10 16 N/A
11:35 pm 23:35 Clear 59 15.1 54 12 82 82 N N/A 30.08 1019 10 16 N/A
11:55 pm 23:55 Clear 60 15.5 53 11.4 77 77 N N/A 30.08 1019 10 16 N/A

Powered by AerisWeather